Location: Pasadena, ca
(34.1243°N, 118.1037°W)
Time: 18:13:50
(UTC-07:00)

OTV 5 (USA 277) - Pass Details

Date: 13 October 2017
Orbit: 404 x 417 km, 43.0° (Epoch: 07 September)

Event Time Altitude Azimuth Distance (km) Brightness Sun altitude
Rises 18:52:33 0° 269° (W) 2,348 ? -7.5°
Reaches altitude 10° 18:54:51 10° 282° (WNW) 1,488 ? -7.9°
Maximum altitude 18:57:48 28° 343° (NNW) 824 ? -8.6°
Drops below altitude 10° 19:00:45 10° 44° (NE) 1,490 ? -9.2°
Enters shadow 19:01:14 - 48° (NE) 1,658 ? -9.3°
